FW8953 Weather Reports


time (UTC)temp
F
wind
direction
speed
knots
gust
knots
rain 1hr
in
rain 24hr
in
rain mn
in
humidity
%
barometer
mb
20260506051037 60 22 7.8 14.8 0.00 0.00 0.00 79 1010.3
20260506050538 61 49 9.6 14.8 0.00 0.00 0.00 79 1010.3
20260506045037 61 23 7.8 14.8 0.00 0.00 0.00 82 1010.2
20260506044551 62 340 7.0 14.8 0.00 0.00 0.00 81 1010.2
20260506044038 62 18 8.7 14.8 0.00 0.00 0.00 82 1010.3
20260506043537 62 16 7.8 15.6 0.00 0.00 0.00 81 1010.2
20260506043050 62 360 8.7 15.6 0.00 0.00 0.00 82 1010.2
20260506042538 62 360 8.7 12.2 0.00 0.00 0.00 82 1010.1
20260506042037 62 334 6.1 15.6 0.00 0.00 0.00 82 1010.1
20260506041555 62 42 8.7 16.5 0.00 0.00 0.00 81 1010.1
20260506041037 63 38 8.7 16.5 0.00 0.00 0.00 81 1010.1
20260506040537 63 5 8.7 14.8 0.00 0.00 0.00 81 1009.9
20260506040053 63 348 8.7 14.8 0.00 0.00 0.00 82 1009.9
20260506035537 63 352 9.6 14.8 0.00 0.00 0.00 81 1009.6
20260506035037 63 352 7.0 13.9 0.00 0.00 0.00 81 1009.6
20260506034552 63 14 8.7 15.6 0.00 0.00 0.00 80 1009.4
20260506034038 63 29 9.6 15.6 0.00 0.00 0.00 80 1009.6
20260506033538 64 16 8.7 13.9 0.00 0.00 0.00 80 1009.4
20260506033101 64 36 9.6 18.2 0.00 0.00 0.00 80 1009.3
20260506032538 64 26 7.8 18.2 0.00 0.00 0.00 80 1009.3
20260506032038 64 11 11.3 18.2 0.00 0.00 0.00 80 1009.3
20260506031552 64 352 9.6 15.6 0.00 0.00 0.00 80 1009.4
20260506031040 65 20 7.8 15.6 0.00 0.00 0.00 80 1009.4
20260506030537 65 13 7.8 14.8 0.00 0.00 0.00 80 1009.0
20260506030100 65 30 9.6 13.9 0.00 0.00 0.00 79 1009.1
20260506025537 66 13 7.8 14.8 0.00 0.00 0.00 79 1009.1
20260506025039 66 41 8.7 14.8 0.00 0.00 0.00 78 1008.7
20260506024608 67 26 7.8 13.9 0.00 0.00 0.00 78 1008.7
20260506024037 67 351 8.7 14.8 0.00 0.00 0.00 78 1008.6
20260506023538 68 5 8.7 14.8 0.00 0.00 0.00 79 1008.4
20260506023046 68 13 8.7 13.0 0.00 0.00 0.00 78 1008.1
20260506022540 68 351 7.0 13.0 0.00 0.00 0.00 78 1007.9
20260506022038 68 10 7.0 12.2 0.00 0.00 0.00 78 1007.6
20260506021555 68 29 7.0 13.0 0.00 0.00 0.00 78 1007.7
20260506021040 69 360 5.2 13.9 0.00 0.00 0.00 78 1007.5
20260506020537 69 5 8.7 15.6 0.00 0.00 0.00 77 1007.4
20260506020049 69 9 8.7 15.6 0.00 0.00 0.00 76 1007.2
20260506015541 70 360 7.0 11.3 0.00 0.00 0.00 76 1007.2
20260506015038 70 28 7.0 11.3 0.00 0.00 0.00 77 1007.1
20260506014549 70 350 7.0 10.4 0.00 0.00 0.00 77 1007.1
20260506014037 70 360 7.0 10.4 0.00 0.00 0.00 76 1007.0
20260506013537 70 351 7.0 10.4 0.00 0.00 0.00 77 1006.8
20260506013049 71 9 7.0 10.4 0.00 0.00 0.00 76 1006.7
20260506012537 71 339 6.1 12.2 0.00 0.00 0.00 75 1006.7
20260506012038 71 351 7.8 12.2 0.00 0.00 0.00 75 1006.7
20260506011609 71 9 7.0 9.6 0.00 0.00 0.00 75 1006.6
20260506011038 71 19 6.1 10.4 0.00 0.00 0.00 74 1006.7
20260506010538 71 17 5.2 13.0 0.00 0.00 0.00 73 1006.6
20260506010051 72 333 7.0 13.0 0.00 0.00 0.00 74 1006.5
20260506005538 72 352 8.7 12.2 0.00 0.00 0.00 74 1006.7
20260506005040 72 336 5.2 11.3 0.00 0.00 0.00 73 1006.7
20260506004550 72 352 6.1 11.3 0.00 0.00 0.00 73 1005.7
20260506004041 72 346 7.0 11.3 0.00 0.00 0.00 73 1005.9
20260506003538 72 13 7.0 12.2 0.00 0.00 0.00 73 1006.1
20260506003049 72 15 7.8 13.0 0.00 0.00 0.00 72 1005.9
20260506002537 73 328 7.0 13.0 0.00 0.00 0.00 73 1005.8
20260506002037 73 360 8.7 14.8 0.00 0.00 0.00 73 1005.4
20260506001549 73 5 7.8 16.5 0.00 0.00 0.00 73 1005.6
20260506001038 73 350 10.4 17.4 0.00 0.00 0.00 73 1005.5
20260506000538 74 352 11.3 17.4 0.00 0.00 0.00 72 1005.4
20260506000054 74 15 9.6 17.4 0.00 0.00 0.00 72 1005.4
20260505235540 75 29 12.2 17.4 0.00 0.00 0.00 71 1005.4
20260505235037 75 352 12.2 18.2 0.00 0.00 0.00 71 1005.3
20260505234546 75 360 12.2 18.2 0.00 0.00 0.00 70 1005.3
20260505234044 76 340 11.3 16.5 0.00 0.00 0.00 69 1005.3
20260505233540 77 352 13.0 20.0 0.00 0.00 0.00 68 1005.2
20260505233045 77 13 8.7 20.0 0.00 0.00 0.00 68 1005.1
20260505232540 77 327 13.9 20.0 0.00 0.00 0.00 67 1005.1
20260505232039 78 331 11.3 17.4 0.00 0.00 0.00 67 1005.0
20260505231552 78 352 12.2 17.4 0.00 0.00 0.00 67 1005.0
20260505231037 79 342 11.3 17.4 0.00 0.00 0.00 67 1004.9
20260505230536 79 344 12.2 17.4 0.00 0.00 0.00 66 1004.9
20260505230048 80 5 11.3 17.4 0.00 0.00 0.00 66 1004.7
20260505225538 81 352 12.2 17.4 0.00 0.00 0.00 65 1004.5
20260505225038 82 339 9.6 13.0 0.00 0.00 0.00 63 1004.3
20260505224547 82 343 8.7 13.0 0.00 0.00 0.00 63 1004.1
20260505224039 82 342 9.6 13.0 0.00 0.00 0.00 61 1004.4
20260505223545 83 342 8.7 13.9 0.00 0.00 0.00 59 1004.3
20260505223049 84 331 9.6 13.9 0.00 0.00 0.00 57 1004.2
20260505222541 84 350 9.6 13.9 0.00 0.00 0.00 55 1003.9
20260505222040 84 329 7.8 12.2 0.00 0.00 0.00 56 1003.8
20260505221600 84 351 7.8 11.3 0.00 0.00 0.00 56 1003.8
20260505221040 84 337 8.7 11.3 0.00 0.00 0.00 56 1003.8
20260505220540 84 329 7.8 13.9 0.00 0.00 0.00 55 1003.7
20260505220057 84 327 7.8 14.8 0.00 0.00 0.00 56 1003.5
20260505215541 84 335 9.6 14.8 0.00 0.00 0.00 56 1003.6
20260505215037 84 342 8.7 13.9 0.00 0.00 0.00 57 1003.7
20260505214553 84 288 4.3 7.8 0.00 0.00 0.00 64 1003.8
20260505214038 85 277 5.2 7.8 0.00 0.00 0.00 62 1003.8
20260505213539 84 295 3.5 7.0 0.00 0.00 0.00 65 1003.8
20260505213049 84 271 3.5 7.8 0.00 0.00 0.00 66 1003.7
20260505212538 84 279 5.2 7.8 0.00 0.00 0.00 65 1003.7
20260505212038 84 276 4.3 7.8 0.00 0.00 0.00 65 1003.9
20260505211551 85 239 2.6 5.2 0.00 0.00 0.00 65 1003.9
20260505211037 86 267 0.9 2.6 0.00 0.00 0.00 62 1004.0
20260505210541 85 274 0.0 2.6 0.00 0.00 0.00 65 1004.1
20260505210053 84 245 0.9 3.5 0.00 0.00 0.00 68 1004.2
20260505205541 83 254 1.7 3.5 0.00 0.00 0.00 70 1004.3
20260505205042 82 0 0.0 3.5 0.00 0.00 0.00 71 1004.3
20260505204558 82 235 1.7 5.2 0.00 0.00 0.00 73 1004.3
20260505204044 81 215 2.6 5.2 0.00 0.00 0.00 74 1004.4
20260505203537 80 222 3.5 7.0 0.00 0.00 0.00 73 1004.4
20260505203051 81 211 3.5 9.6 0.00 0.00 0.00 74 1004.4
20260505202541 81 233 5.2 10.4 0.00 0.00 0.00 72 1004.5
20260505202041 81 238 7.8 11.3 0.00 0.00 0.00 71 1004.6
20260505201551 81 242 7.0 13.0 0.00 0.00 0.00 71 1004.7
20260505201041 81 247 9.6 13.0 0.00 0.00 0.00 70 1004.6
20260505200538 80 242 8.7 11.3 0.00 0.00 0.00 72 1004.6
20260505200049 80 252 7.8 11.3 0.00 0.00 0.00 74 1004.7
20260505195540 80 232 8.7 11.3 0.00 0.00 0.00 72 1004.7
20260505195040 79 216 7.8 9.6 0.00 0.00 0.00 75 1004.8
20260505194557 79 221 5.2 9.6 0.00 0.00 0.00 76 1004.8
20260505194040 79 217 7.0 10.4 0.00 0.00 0.00 75 1004.8
20260505193539 79 217 7.8 10.4 0.00 0.00 0.00 74 1004.8
20260505193051 79 225 7.0 11.3 0.00 0.00 0.00 76 1005.0
20260505192540 79 217 7.0 11.3 0.00 0.00 0.00 76 1004.8
20260505192039 78 209 7.8 10.4 0.00 0.00 0.00 76 1004.7
20260505191550 78 205 7.8 10.4 0.00 0.00 0.00 76 1004.7
20260505191038 78 203 7.8 10.4 0.00 0.00 0.00 76 1004.8
20260505190539 78 216 7.8 13.9 0.00 0.00 0.00 77 1004.8
20260505190048 78 209 7.8 13.9 0.00 0.00 0.00 77 1004.7
20260505185538 78 215 10.4 13.0 0.00 0.00 0.00 76 1004.7
20260505185043 78 202 8.7 13.0 0.00 0.00 0.00 76 1004.8
20260505184553 78 203 9.6 13.0 0.00 0.00 0.00 76 1004.8
20260505184041 78 211 9.6 13.9 0.00 0.00 0.00 76 1004.8
20260505183543 78 195 10.4 13.9 0.00 0.00 0.00 76 1005.0
20260505183053 78 208 8.7 12.2 0.00 0.00 0.00 76 1005.0
20260505182540 78 231 8.7 11.3 0.00 0.00 0.00 75 1004.8
20260505182037 78 211 8.7 11.3 0.00 0.00 0.00 76 1004.9
20260505181545 77 215 7.0 16.5 0.00 0.00 0.00 77 1004.9
20260505181037 79 215 10.4 16.5 0.00 0.00 0.00 74 1004.9
20260505180536 78 218 10.4 14.8 0.00 0.00 0.00 76 1005.1
20260505180045 78 215 9.6 13.0 0.00 0.00 0.00 77 1005.1
20260505175535 77 196 8.7 12.2 0.00 0.00 0.00 78 1005.0
20260505175038 77 205 7.8 12.2 0.00 0.00 0.00 79 1004.9
20260505174549 77 197 7.8 13.9 0.00 0.00 0.00 78 1004.9
20260505174038 78 203 7.8 13.9 0.00 0.00 0.00 78 1004.8
20260505173536 78 190 10.4 13.9 0.00 0.00 0.00 77 1004.9
20260505173049 77 200 9.6 13.0 0.00 0.00 0.00 78 1005.0
20260505172534 77 205 9.6 13.9 0.00 0.00 0.00 78 1005.0
20260505172037 77 204 10.4 15.6 0.00 0.00 0.00 78 1005.0
20260505171547 77 197 9.6 15.6 0.00 0.00 0.00 78 1005.0
20260505171039 77 205 12.2 14.8 0.00 0.00 0.00 78 1005.0
20260505170538 76 200 8.7 16.5 0.00 0.00 0.00 80 1005.0
20260505170050 77 205 9.6 16.5 0.00 0.00 0.00 79 1005.2
20260505165538 76 195 10.4 15.6 0.00 0.00 0.00 79 1005.1
20260505165037 76 201 10.4 14.8 0.00 0.00 0.00 79 1005.2
20260505164557 76 196 10.4 14.8 0.00 0.00 0.00 80 1005.2
20260505164037 76 205 9.6 15.6 0.00 0.00 0.00 80 1005.2
20260505163538 76 197 10.4 16.5 0.00 0.00 0.00 80 1005.0
20260505163050 76 196 12.2 19.1 0.00 0.00 0.00 80 1005.1
20260505162535 76 200 11.3 19.1 0.00 0.00 0.00 80 1005.1
20260505162038 75 198 13.9 19.1 0.00 0.00 0.00 81 1004.9
20260505161556 75 192 11.3 20.0 0.00 0.00 0.00 81 1004.8
20260505161042 75 200 14.8 20.0 0.00 0.00 0.00 81 1004.8
20260505160539 75 196 12.2 18.2 0.00 0.00 0.00 81 1004.8
20260505153108 74 195 12.2 20.0 0.00 0.00 0.00 83 1004.7
20260505152543 74 199 13.0 20.0 0.00 0.00 0.00 82 1004.7
20260505152038 74 192 14.8 21.7 0.00 0.00 0.00 82 1004.6
20260505151549 74 196 13.9 21.7 0.00 0.00 0.00 83 1004.6
20260505151039 74 190 13.9 18.2 0.00 0.00 0.00 83 1004.8
20260505150538 74 207 13.0 19.1 0.00 0.00 0.00 83 1005.0
20260505140540 72 190 13.0 20.0 0.00 0.00 0.00 85 1004.8
20260505125038 71 183 11.3 16.5 0.00 0.00 0.00 87 1004.4
20260505124549 71 180 10.4 16.5 0.00 0.00 0.00 87 1004.2
20260505124037 71 169 10.4 16.5 0.00 0.00 0.00 87 1004.2
20260505123542 71 190 8.7 15.6 0.00 0.00 0.00 87 1004.2
20260505123052 71 180 9.6 16.5 0.00 0.00 0.00 87 1004.2
20260505122536 71 163 10.4 16.5 0.00 0.00 0.00 87 1004.1
20260505122039 71 193 10.4 16.5 0.00 0.00 0.00 87 1003.8
20260505121545 71 183 9.6 19.1 0.00 0.00 0.00 87 1003.9
20260505121039 71 190 13.0 19.1 0.00 0.00 0.00 87 1003.9
20260505120537 71 177 12.2 18.2 0.00 0.00 0.00 87 1003.8
20260505120100 71 192 11.3 19.1 0.00 0.00 0.00 86 1003.8
20260505115538 71 182 11.3 21.7 0.00 0.00 0.00 86 1003.8
20260505115041 71 198 13.9 21.7 0.00 0.00 0.00 86 1003.7
20260505114551 71 195 12.2 18.2 0.00 0.00 0.00 86 1003.7
20260505114041 71 198 13.0 22.6 0.00 0.00 0.00 86 1003.7
20260505113539 71 180 13.0 22.6 0.00 0.00 0.00 86 1003.7
20260505113103 71 173 13.0 19.1 0.00 0.00 0.00 86 1003.6
20260505112539 71 168 13.0 23.5 0.00 0.00 0.00 85 1003.5
20260505112037 72 200 13.9 23.5 0.00 0.00 0.00 85 1003.5
20260505111550 72 194 13.9 21.7 0.00 0.00 0.00 85 1003.4
20260505111041 72 185 13.0 19.1 0.00 0.00 0.00 85 1003.4
20260505110536 72 193 13.0 19.1 0.00 0.00 0.00 86 1003.5
20260505102038 71 204 12.2 20.0 0.00 0.00 0.00 86 1003.7
20260505101550 71 194 12.2 20.0 0.00 0.00 0.00 86 1003.7
20260505101041 71 191 11.3 20.0 0.00 0.00 0.00 86 1003.6
20260505100541 71 180 12.2 20.0 0.00 0.00 0.00 86 1003.7
20260505100045 71 191 12.2 20.9 0.00 0.00 0.00 86 1003.7
20260505095537 71 182 13.9 23.5 0.00 0.00 0.00 85 1003.6
20260505095040 71 165 14.8 23.5 0.00 0.00 0.00 85 1003.7
20260505094549 71 183 13.9 20.0 0.00 0.00 0.00 86 1003.7
20260505094039 71 177 15.6 20.0 0.00 0.00 0.00 85 1003.6
20260505093537 71 192 13.9 20.9 0.00 0.00 0.00 85 1003.7
20260505093054 72 202 13.9 20.9 0.00 0.00 0.00 85 1003.8
20260505092539 72 184 13.0 21.7 0.00 0.00 0.00 85 1003.9
20260505092039 72 180 14.8 24.3 0.00 0.00 0.00 85 1003.9
20260505091545 72 184 14.8 24.3 0.00 0.00 0.00 85 1004.0
20260505091038 72 188 15.6 22.6 0.00 0.00 0.00 85 1003.9
20260505090538 72 187 14.8 21.7 0.00 0.00 0.00 85 1004.1
20260505090048 72 190 15.6 21.7 0.00 0.00 0.00 85 1004.1
20260505085539 72 174 13.9 22.6 0.00 0.00 0.00 85 1004.0
20260505085039 72 182 13.9 22.6 0.00 0.00 0.00 84 1004.2
20260505084552 72 189 14.8 20.9 0.00 0.00 0.00 84 1004.2
20260505084038 72 170 14.8 20.9 0.00 0.00 0.00 84 1004.1
20260505083538 72 173 14.8 21.7 0.00 0.00 0.00 84 1004.1
20260505083051 72 193 13.0 21.7 0.00 0.00 0.00 84 1004.0
20260505082539 72 172 11.3 19.1 0.00 0.00 0.00 84 1004.1
20260505082039 72 175 13.0 19.1 0.00 0.00 0.00 84 1004.3
20260505081552 72 150 11.3 18.2 0.00 0.00 0.00 83 1004.3
20260505081039 72 183 10.4 19.1 0.00 0.00 0.00 83 1004.3
20260505080539 72 178 8.7 19.1 0.00 0.00 0.00 83 1004.1
20260505080044 72 189 12.2 18.2 0.00 0.00 0.00 83 1004.3
20260505075538 72 201 12.2 20.9 0.00 0.00 0.00 82 1004.3
20260505075038 73 196 12.2 21.7 0.00 0.00 0.00 83 1004.4
20260505074548 73 167 12.2 21.7 0.00 0.00 0.00 82 1004.3
20260505074038 73 193 13.0 20.0 0.00 0.00 0.00 82 1004.5
20260505073538 73 174 13.0 20.9 0.00 0.00 0.00 82 1004.6
20260505073050 73 177 13.9 21.7 0.00 0.00 0.00 81 1004.6
20260505072538 73 186 13.9 23.5 0.00 0.00 0.00 81 1004.7
20260505072038 73 173 15.6 23.5 0.00 0.00 0.00 80 1004.7
20260505071544 73 191 15.6 23.5 0.00 0.00 0.00 80 1004.8
20260505071038 73 178 14.8 21.7 0.00 0.00 0.00 80 1005.0
20260505070539 73 192 13.9 20.9 0.00 0.00 0.00 80 1005.0
20260505070050 73 188 13.9 24.3 0.00 0.00 0.00 79 1005.2
20260505065538 73 157 13.9 24.3 0.00 0.00 0.00 79 1005.4
20260505065038 74 176 13.9 20.0 0.00 0.00 0.00 78 1005.3
20260505064557 74 190 12.2 19.1 0.00 0.00 0.00 79 1005.5
20260505064037 74 190 12.2 19.1 0.00 0.00 0.00 78 1005.7
20260505063541 74 179 10.4 18.2 0.00 0.00 0.00 78 1005.7
20260505063049 74 173 11.3 19.1 0.00 0.00 0.00 78 1005.7
20260505062539 74 175 13.0 19.1 0.00 0.00 0.00 77 1005.7
20260505062039 74 182 11.3 20.0 0.00 0.00 0.00 77 1005.7
20260505061545 74 165 13.0 20.0 0.00 0.00 0.00 77 1005.6
20260505061039 74 177 13.0 21.7 0.00 0.00 0.00 77 1005.7
20260505060539 74 184 13.9 21.7 0.00 0.00 0.00 77 1005.6
20260505060057 74 186 11.3 18.2 0.00 0.00 0.00 77 1005.6
20260505055539 74 177 11.3 18.2 0.00 0.00 0.00 77 1005.6
20260505055039 74 184 13.0 24.3 0.00 0.00 0.00 77 1005.4